PEGASUS R/B

基本信息
目录编号:
25506
目录名称:
PEGASUS R/B
国际标识:
1998-060B
轨道中心:
EARTH
物体状态:
在轨
发射日期:
1998-10-23 UTC
国别:
美国 (US)
轨道信息
数据来源: 国际轨道数据
星历时间: 2026-07-13T07:22:44+0800
半长轴: 7110.143km
偏心率: 0.0022366
轨道倾角: 24.997°
近地点辐角: 6.328°
升交点赤经: 75.907°
平近点角: 124.576°
近地点: 716.103km
远地点: 747.909km
周期: 99.444分钟
每日圈数: 14.480558
详细信息
发射场:
ERAS
轨道高度:
LEO
数据来源:
AOE Integration Group
参考系:
TEME
时间系统:
UTC
历元类型:
SGP4
2D轨道图
3D轨道图
轨道高度分析图
轨道倾角分析图
轨道综合分析图
查看轨道综合分析图